Regional Weather Roundup
Issued by NWS Boston, MA

Current Version | Previous Version | Text Only | Print | Product List | Glossary Off
Versions: 1 2 3 4 5 6 7 8 9 10 11 12 13 14 15 16 17 18 19 20 21 22 23 24 25 26 27 28 29 30 31 32 33 34 35 36 37 38 39 40 41 42 43 44 45 46 47 48 49 50
000 ASUS41 KBOX 211310 RWRBOX REGIONAL WEATHER ROUNDUP NATIONAL WEATHER SERVICE BOSTON/NORTON MA 800 AM EST THU FEB 21 2019 NOTE: "FAIR" INDICATES FEW OR NO CLOUDS BELOW 12,000 FEET WITH NO SIGNIFICANT WEATHER AND/OR OBSTRUCTIONS TO VISIBILITY. MAZALL-211400- EASTERN MASSACHUSETTS CITY SKY/WX TMP DP RH WIND PRES REMARKS BOSTON CLOUDY 32 29 88 NW7 29.87S FOG WCI 26 BEVERLY FOG 30 27 88 NW12 29.86F VSB 1 WCI 20 LAWRENCE CLOUDY 26 24 92 N6 29.89F FOG WCI 19 BEDFORD CLOUDY 29 26 89 NW7 29.87S FOG WCI 22 BLUE HILL N/A 29 29 100 N9 29.82S WCI 20 NORWOOD CLOUDY 33 30 88 NW6 29.87R FOG WCI 28 MARSHFIELD FOG 36 36 100 N5 29.84R VSB 3/4 WCI 32 PLYMOUTH CLOUDY 33 31 92 NW7 29.84R FOG WCI 27 TAUNTON CLOUDY 33 31 92 VRB7 29.85R FOG WCI 27 NEW BEDFORD CLOUDY 33 33 100 VRB7 29.84R FOG WCI 27 $$ MAZALL-211400- CAPE COD AND THE ISLANDS CITY SKY/WX TMP DP RH WIND PRES REMARKS FALMOUTH FOG 34 34 100 NW12 29.81R VSB 3/4 WCI 25 HYANNIS LGT RAIN 37 34 89 N9 29.78S VSB 3/4 WCI 30 CHATHAM CLOUDY 39 38 96 VRB5 29.78F FOG PROVINCETOWN MIX PCPN 37 36 96 N7 29.83R VSB 1 WCI 32 NANTUCKET FOG 46 45 96 W22G29 29.75F VSB 1/4 MARTHAS VNYRD CLOUDY 37 37 100 NW12 29.80R FOG WCI 29 $$ MAZALL-211400- CENTRAL AND WESTERN MASSACHUSETTS CITY SKY/WX TMP DP RH WIND PRES REMARKS WORCESTER CLOUDY 25 25 100 N7 29.83S FOG WCI 17 FITCHBURG CLOUDY 27 25 92 CALM 29.88F FOG ORANGE CLOUDY 28 26 92 CALM 29.88R FOG SPRINGFIELD CLOUDY 27 25 92 CALM 29.87F WESTFIELD CLOUDY 27 23 85 NE3 29.89R NORTH ADAMS CLOUDY 30 29 96 E3 29.87R PITTSFIELD CLOUDY 28 24 85 CALM 29.83R $$ RIZALL-211400- RHODE ISLAND CITY SKY/WX TMP DP RH WIND PRES REMARKS PROVIDENCE CLOUDY 31 30 96 N12 29.87R WCI 22 NEWPORT CLOUDY 32 32 100 NW13 29.84R FOG WCI 22 BLOCK ISLAND CLOUDY 36 36 100 NW9 29.86R FOG WCI 29 SMITHFIELD CLOUDY 28 28 100 N8 29.85R FOG WCI 20 WESTERLY PTSUNNY 37 36 96 NW7 29.87R WCI 32 $$ CTZALL-211400- CONNECTICUT CITY SKY/WX TMP DP RH WIND PRES REMARKS BRADLEY INTL CLOUDY 28 26 92 N5 29.89S WCI 23 HARTFORD CLOUDY 29 27 92 N5 29.90S WCI 24 BRIDGEPORT PTSUNNY 35 32 88 NW6 29.91R WCI 30 DANBURY CLOUDY 32 31 96 CALM 29.90R FOG GROTON CLOUDY 35 34 96 NW7 29.87R WCI 29 NEW HAVEN PTSUNNY 35 32 88 N3 29.89R CHESTER CLOUDY 32 30 93 N7 29.87R FOG WCI 26 MERIDEN CLOUDY 31 28 89 NE5 29.90R WCI 26 WILLIMANTIC CLOUDY 32 30 92 N3 29.88R OXFORD PTSUNNY 32 31 96 CALM 29.87R FOG $$ MEZ002-015-021-024-NHZ003-005-008-011-012-014-VTZ005-008-211400- NORTHERN NEW ENGLAND CITY SKY/WX TMP DP RH WIND PRES REMARKS PORTLAND ME FRZ DRZL 24 22 91 VRB6 29.89F FOG WCI 17 BANGOR ME LGT SNOW 23 20 88 N5 29.92F FOG WCI 17 CONCORD NH CLOUDY 24 24 100 NW6 29.88F FOG WCI 17 MANCHESTER NH FRZ DRZL 26 24 92 N7 29.87F FOG WCI 18 NASHUA NH CLOUDY 27 27 100 N6 29.89F FOG WCI 20 PORTSMOUTH NH CLOUDY 25 24 94 NW7 29.86 FOG WCI 17 JAFFREY NH CLOUDY 25 24 96 VRB3 29.84S FOG KEENE NH CLOUDY 26 25 96 CALM 29.88S FOG BURLINGTON VT CLOUDY 33 28 81 S20G29 29.79R WCI 21 MT. WASHINGTON SNOW 18 18 100 W46G54 N/A VSB 0 WCI -5 $$ NYZ052-076-211400- EASTERN NEW YORK CITY SKY/WX TMP DP RH WIND PRES REMARKS ALBANY PTSUNNY 33 28 81 S7 29.89R WCI 27 NEW YORK CITY PTSUNNY 36 34 92 CALM 29.93R $$ ANZALL-211400- MARINE OBSERVATIONS STATION/POSITION TIME TEMP WIND PRES VSBY WAVE AIR SEA DIR/SP/G HT/PER (UTC) (F) (DEG/KT/KT) (MB) (MI) (FT/S) BOSTON BUOY 1250 36 39 10/ 8/ 10 1010.6F 4/ 6 BUZZARDS BAY 1200 36 360/ 13/ 14 1009.0F NANTUCKET SOUND 1250 36 34 350/ 12/ 14 1008.3R 2/ 4 MASS BAY-STELLWA 1204 35 37 60/ 6/ 6 1010.2F 1 7/8 5/ 5 ISLE OF SHOALS 1200 30 350/ 12/ 13 1012.0F S OF BLOCK IS 1230 42 N/A 9/ 8 $$ ......................KEY......................... SKY/WX - SKY CONDITION/PRESENT WEATHER TMP - TEMPERATURE IN FAHRENHEIT DWPT - DEWPOINT IN FAHRENHEIT RH - RELATIVE HUMIDITY IN PERCENT WIND - DIRECTION AND SPEED IN MPH PRES - MEAN SEA LEVEL PRESSURE IN INCHES OF HG WCI - WIND CHILL INDEX VSB - VISIBILITY IN MILES HX - HEAT INDEX TC - TEMPERATURE IN CELSIUS VRB - VARIABLE WIND DIRECTION N/A - NOT AVAILABLE

USA.gov is the U.S. government's official web portal to all federal, state and local government web resources and services.